Theta_e
290 288 288 288 288 287 286 286 286 286 288 289 289 288 288 288 288 288 289 289 290 289 290 290 291 291 293
288 289 288 288 287 286 286 285 285 285 286 287 287 287 287 287 287 287 287 287 287 288 288 289 290 291 291
288 288 287 287 286 285 285 285 285 285 285 285 285 285 285 286 286 286 285 286 287 288 288 288 289 291 290
287 287 287 286 285 284 284 284 284 285 284 283 284 283 283 284 284 283 284 285 286 287 288 289 289 290 289
286 286 285 285 284 284 284 283 283 284 283 282 283 283 283 282 282 283 284 285 286 287 287 287 288 288 288
286 285 285 284 284 284 283 283 282 283 282 282 282 282 282 282 282 283 284 285 287 286 285 286 286 287 287
285 285 284 284 284 283 283 282 281 281 280 280 281 282 281 282 281 283 284 285 286 286 284 285 286 286 286
285 285 284 284 283 282 282 281 280 280 280 280 281 280 280 282 281 283 284 284 283 283 284 284 284 285 286
285 284 283 282 283 281 280 279 279 280 279 280 280 280 280 281 281 282 281 281 281 282 282 283 283 284 285
283 282 281 281 281 280 279 278 278 279 280 279 279 280 279 279 280 279 279 279 280 280 281 281 282 283 283
282 281 281 280 280 280 279 278 278 278 278 279 279 279 279 279 279 278 278 279 279 279 279 280 281 281 281
281 281 280 280 280 280 280 279 279 278 278 278 278 278 278 278 278 278 278 278 279 278 279 279 279 279 280
280 280 280 280 280 279 279 279 279 278 278 277 277 277 277 277 277 277 278 278 278 279 278 279 279 278 278
280 280 280 279 279 278 278 278 278 277 278 278 277 276 276 276 276 276 277 277 278 278 278 278 278 278 278
280 280 279 278 277 277 278 277 276 276 277 278 277 277 277 276 275 276 277 277 278 278 278 277 278 278 279
280 279 279 278 277 277 277 276 276 276 276 277 277 276 276 276 277 277 277 277 278 278 278 277 277 278 278
279 278 278 278 277 277 277 276 275 275 276 276 276 275 274 274 276 277 277 277 277 277 277 277 277 278 278
Wind_Speed
6 2 2 6 7 9 12 16 16 16 14 16 12 12 18 18 18 19 19 18 19 20 21 21 22 23 23
4 2 3 7 9 13 16 15 16 17 17 11 10 14 20 18 18 17 17 17 18 19 19 21 22 21 21
3 2 3 7 13 16 17 16 20 21 11 10 14 20 19 18 19 17 19 19 18 19 21 20 19 20 20
6 1 3 9 13 17 23 23 27 17 11 16 21 23 18 16 17 20 19 17 19 18 18 18 19 19 20
4 2 5 9 11 13 17 26 29 11 20 30 29 25 18 22 24 18 19 17 13 15 18 18 21 21 22
2 3 4 9 12 15 18 16 9 9 30 36 26 22 23 28 24 21 17 15 10 15 21 22 22 21 22
2 3 7 11 12 17 18 16 16 26 23 19 23 16 28 30 20 15 12 10 15 25 28 22 22 23 24
3 5 8 11 12 14 17 20 25 23 13 10 13 21 31 26 11 7 9 18 25 26 23 24 24 24 22
3 7 11 11 8 14 17 16 13 14 20 9 11 27 21 15 9 5 25 23 24 25 26 24 23 22 22
8 11 11 10 10 12 12 11 13 10 4 13 18 13 10 8 8 31 28 27 26 28 23 22 21 20 24
11 12 12 11 12 12 11 12 12 14 20 18 15 18 11 18 16 26 25 28 35 30 21 18 20 23 26
13 15 16 15 15 15 14 15 17 21 22 18 17 19 20 21 20 21 27 31 28 26 19 28 27 26 21
15 17 17 18 18 19 16 17 20 24 20 18 19 20 18 21 24 26 26 26 26 16 31 30 31 30 31
14 16 18 20 17 19 18 20 22 24 22 22 18 17 21 25 24 27 29 15 27 31 31 32 31 30 29
15 17 19 16 17 15 18 21 20 20 27 25 23 23 24 24 20 27 28 29 29 30 30 28 27 31 29
17 15 16 16 20 17 22 22 22 23 25 27 27 27 25 22 17 23 28 28 31 26 27 26 27 30 29
15 15 15 19 19 22 23 23 22 23 26 27 25 20 7 7 21 17 21 30 34 30 26 26 27 34 32
Wind_Direction
148 167 332 342 341 334 338 337 338 343 336 331 330 327 333 326 323 319 313 310 308 306 305 306 306 306 306
158 185 355 343 342 336 337 335 337 343 332 333 327 321 325 323 319 315 317 314 307 304 303 304 304 304 311
140 36 333 339 339 337 335 338 341 348 346 333 328 323 322 320 317 315 315 309 308 305 303 302 300 303 307
78 42 339 343 341 340 338 339 337 347 344 333 328 331 330 325 322 314 311 309 305 305 308 306 299 311 308
61 8 350 340 344 339 332 337 336 345 336 334 334 336 341 335 327 326 311 303 306 326 319 312 308 303 301
29 358 329 340 337 338 336 337 333 325 331 322 331 329 333 333 327 314 309 300 278 320 325 309 304 303 302
37 338 337 342 328 328 328 318 297 306 317 303 321 317 328 331 326 319 322 311 301 314 315 307 303 303 302
353 345 336 333 321 320 316 311 310 317 324 286 311 318 324 331 326 346 356 325 317 316 311 307 305 303 301
315 321 317 311 315 314 322 327 318 313 316 279 308 316 314 324 320 304 324 326 323 318 310 307 306 304 300
329 319 320 319 315 328 325 313 313 314 332 327 311 329 319 292 286 313 319 322 318 318 313 310 310 308 310
322 329 333 326 320 322 320 321 304 287 294 308 299 303 285 295 302 303 312 311 321 323 318 318 314 312 308
331 335 334 330 331 318 307 307 319 311 314 302 290 295 296 296 296 301 305 310 316 314 319 320 318 316 307
334 327 327 325 320 328 317 310 308 317 320 321 310 307 294 289 294 297 303 306 311 301 318 322 322 321 316
318 320 321 331 326 324 315 318 315 319 329 330 325 317 304 297 291 290 291 286 299 310 317 315 317 317 313
311 312 315 317 310 306 314 316 312 311 318 327 330 324 315 303 282 286 290 296 300 303 307 300 302 311 315
306 305 301 309 314 311 315 323 316 313 311 321 323 323 324 318 284 283 297 294 302 302 300 295 298 306 310
301 306 300 309 316 318 320 316 309 310 313 315 314 307 298 286 298 306 290 296 298 298 296 294 291 300 307